Regional Weather Roundup
Issued by NWS Northern Indiana

Home | Current Version | Previous Version | Text Only | Print | Product List | Glossary Off
Versions: 1 2 3 4 5 6 7 8 9 10 11 12 13 14 15 16 17 18 19 20 21 22 23 24 25 26 27 28 29 30 31 32 33 34 35 36 37 38 39 40 41 42 43 44 45 46 47 48 49 50

000
ASUS43 KIWX 302200
RWRIWX

KIWX WEATHER ROUNDUP
NATIONAL WEATHER SERVICE NORTHERN INDIANA
600 PM EDT FRI SEP 30 2016

NOTE: "FAIR" INDICATES FEW OR NO CLOUDS BELOW 12,000 FEET WITH NO
SIGNIFICANT WEATHER AND/OR OBSTRUCTIONS TO VISIBILITY.

* THESE STATIONS ARE NOT UNDER NWS QUALITY CONTROL. THEY ALSO MAY NOT
  REPORT WEATHER SUCH AS PRECIPITATION OR FOG.

INZ001>027-302300-
NORTHERN INDIANA

CITY           SKY/WX    TMP DP  RH WIND       PRES   REMARKS
GARY*          CLOUDY    64  63  94 N14G25    30.06S
SOUTH BEND     RAIN      61  58  90 NE9       30.07R
ELKHART*       CLOUDY    61  57  88 NE9       30.06S
GOSHEN         HVY RAIN  61  58  90 NE12      30.05S VSB 1
ANGOLA*          N/A     61  48  63 E8        30.07R
FORT WAYNE     LGT RAIN  62  59  90 E8        30.03S
PERU/GRISSOM   CLOUDY    64  60  85 E12       30.00R

$$
INZ028>050-302300-
CENTRAL INDIANA

CITY           SKY/WX    TMP DP  RH WIND       PRES   REMARKS
LAFAYETTE      CLOUDY    66  58  75 NE12      29.99S
KOKOMO*        CLOUDY    64  57  77 E13       30.01S
MUNCIE*        LGT RAIN  61  60  97 E10       30.00R
INDIANAPOLIS   CLOUDY    61  59  93 NE6       29.98R THUNDER

$$
MIZ043>046-050>051-056>058-064>065-071>073-077>080-302300-
SOUTHWEST LOWER MICHIGAN

CITY           SKY/WX    TMP DP  RH WIND       PRES   REMARKS
BATTLE CREEK   CLOUDY    61  58  90 NE13      30.10R
BENTON HARBOR  LGT RAIN  62  57  83 NE7       30.07F
COLDWATER*     CLOUDY    60  59  96 E9        30.09R
HILLSDALE*     RAIN      59  57  94 NE9       30.09R
HOLLAND        CLOUDY    62  58  86 NE13G18   30.12R
GRAND RAPIDS   LGT RAIN  60  56  86 E14       30.13R
KALAMAZOO      LGT RAIN  61  56  83 VRB7      30.10R
STURGIS*       CLOUDY    61  57  87 E9        30.07R
THREE RIVERS*  CLOUDY    61  59  93 NE7       30.08S

$$
OHZ001>008-015>018-024>025-302300-
NORTHWEST OHIO

CITY           SKY/WX    TMP DP  RH WIND       PRES   REMARKS
DEFIANCE       RAIN      62  59  90 E9        30.08R FOG
FINDLAY        LGT RAIN  62  58  86 NE16      30.02F FOG
TOLEDO EXPRESS CLOUDY    62  60  93 E7        30.07S
TOLEDO METCALF LGT RAIN  63  60  90 E7        30.07S
LIMA           CLOUDY    60  60 100 E13       30.02R

$$
AND FOR LAKE MICHIGAN COASTAL AND OPEN LAKE BUOY OBSERVATIONS

STATION/POSITION TEMP    WIND        PRES    VSBY  WAVE
                 AIR SEA DIR/SP/G                  HT/PER
                 (F)     (DEG/KT/KT) (MB)    (MI)  (FT/S)
CALUMET HARBOR    63      10/ 13/ 17 1017.7R
MICHIGAN CITY     63      30/ 21/ 23   N/A
BURNS HARBOR      63      40/ 20/ 22 1017.6S
SAINT JOSEPH      63      40/  6/  9 1019.3
SOUTH LAKE BUOY   64 68   60/ 21/ 25 1018.7          4/ 5
4 MI NW BRIDGMAN  56 51   40/  8/ 12 1018.4R         4/ 5
MICHIGAN CITY     62 64   40/ 17/ 21   N/A           5/ 6

$$
&&




USA.gov is the U.S. government's official web portal to all federal, state and local government web resources and services.